Home > Weather > Zagreb > Past weeks

Flag for Croatia Weather for the Past 2 Weeks in Zagreb, Croatia

Now
52 °F

Light rain. Clear.


Feels Like: 52 °F
Forecast: 28 / 47 °F
Wind: 2 mph from North

Location: Zagreb / Pleso

Current Time: Feb 10, 2016 at 4:16:03 AM

Latest Report: Feb 10, 2016 at 3:30 AM


Visibility: N/A

Pressure: 29.30 "Hg

Humidity: 67%

Dew point: 41 °F

Location of ZagrebLocation

Historic Weather in Zagreb — Graph

°F

Zagreb Temperature Yesterday

Maximum temperature yesterday: 59 °F (at 10:00 AM)
Minimum temperature yesterday: 48 °F (at 7:00 AM)
Average temperature yesterday: 54 °F

High & Low Weather Summary for the Past Weeks

 TemperatureHumidityPressure
High63 °F (Jan 28, 1:30 PM)100% (Jan 30, 2:00 AM)30.45 "Hg (Jan 30, 2:00 AM)
Low23 °F (Feb 6, 6:30 AM)38% (Feb 7, 1:00 PM)29.36 "Hg (Feb 10, 2:30 AM)
Average46 °F71%30.15 "Hg
* Reported Jan 26 2:00 AM — Feb 10 2:30 AM, Zagreb, Weather by CustomWeather, © 2016

Note: Actual official high and low records may vary slightly from our data, if they occured in-between our weather recording intervals... More about our weather records

Advertising

Zagreb Weather History for the Previous 24 Hours

 ConditionsComfort  
Time TempWeatherWind HumidityBarometerVisibility
2:30 AM
Wed, Feb 10
54 °FLight rain. Passing clouds.9 mph63%29.36 "HgN/A
2:00 AM54 °FPassing clouds.9 mph63%29.39 "HgN/A
1:30 AM52 °FPassing clouds.8 mph72%29.42 "HgN/A
1:00 AM52 °FLight rain. Passing clouds.10 mph72%29.42 "HgN/A
12:30 AM54 °FLight rain. Passing clouds.12 mph63%29.45 "HgN/A
12:00 AM52 °FPassing clouds.5 mph62%29.47 "HgN/A
11:30 PM
Tue, Feb 9
52 °FLight rain. Clear.3 mph62%29.47 "HgN/A
10:30 PM54 °FPassing clouds.7 mph54%29.53 "HgN/A
10:00 PM54 °FPassing clouds.10 mph54%29.56 "HgN/A
9:30 PM55 °FPassing clouds.17 mph51%29.56 "HgN/A
9:00 PM55 °FPassing clouds.17 mph51%29.59 "HgN/A
8:30 PM55 °FPassing clouds.15 mph51%29.62 "HgN/A
8:00 PM57 °FPassing clouds.15 mph48%29.62 "HgN/A
7:30 PM55 °FPassing clouds.13 mph51%29.65 "HgN/A
7:00 PM55 °FPassing clouds.15 mph51%29.68 "HgN/A
6:30 PM55 °FPassing clouds.16 mph51%29.68 "HgN/A
6:00 PM55 °FPassing clouds.12 mph55%29.71 "HgN/A
5:30 PM55 °FPassing clouds.13 mph55%29.71 "HgN/A
5:00 PM55 °FPassing clouds.14 mph55%29.74 "HgN/A
4:30 PM57 °FPassing clouds.17 mph51%29.74 "HgN/A
4:00 PM57 °FPassing clouds.14 mph55%29.77 "HgN/A
3:30 PM55 °FPassing clouds.6 mph63%29.77 "HgN/A
3:00 PM57 °FPassing clouds.10 mph59%29.80 "HgN/A
2:30 PM57 °FPassing clouds.10 mph59%29.83 "HgN/A
2:00 PM55 °FPassing clouds.16 mph63%29.86 "HgN/A
1:30 PM57 °FPassing clouds.18 mph59%29.86 "HgN/A
1:00 PM57 °FPassing clouds.20 mph51%29.89 "HgN/A
12:30 PM59 °FPassing clouds.23 mph48%29.92 "HgN/A
12:00 PM57 °FPassing clouds.22 mph51%29.92 "HgN/A
11:00 AM59 °FPassing clouds.21 mph51%29.92 "HgN/A
10:30 AM59 °FPassing clouds.17 mph48%29.92 "HgN/A
10:00 AM59 °FSunny.17 mph51%29.92 "Hg10 mi
9:00 AM55 °FSunny.10 mph59%29.95 "Hg10 mi
8:30 AM52 °FSunny.12 mph67%29.95 "Hg10 mi
8:00 AM50 °FSunny.9 mph67%29.95 "Hg10 mi
7:00 AM48 °FClear.7 mph66%29.92 "Hg10 mi
6:30 AM50 °FClear.7 mph62%29.92 "Hg10 mi
6:00 AM50 °FClear.13 mph67%29.92 "Hg10 mi
5:30 AM50 °FPassing clouds.10 mph67%29.92 "HgN/A
5:00 AM50 °FClear.8 mph67%29.92 "Hg10 mi
4:30 AM50 °FClear.8 mph67%29.92 "Hg10 mi
4:00 AM50 °FPassing clouds.6 mph71%29.89 "HgN/A
Weather by CustomWeather, © 2016

See weather overviewHow to use our weather pages